Wind_Speed
37 40 42 45 47 49 51 53 55 56 57 58 60 62 63 63 64 65 64 63 63 64 65 65 66 66 65 65 67 68 71 73 73 72 73 71 68 63 58 55 52 50 48
39 42 45 47 49 51 53 55 56 58 60 62 64 65 64 63 64 66 64 63 63 62 62 63 61 61 62 64 67 69 71 73 73 69 63 58 53 50 47 43 40 38 37
42 45 48 50 53 54 56 58 60 62 64 65 65 64 63 63 63 62 62 61 60 59 58 57 58 60 62 65 67 69 69 68 64 59 52 48 44 42 38 35 32 32 31
46 49 51 54 56 57 59 62 63 64 65 64 62 61 61 61 62 62 60 58 56 55 55 57 59 61 63 65 65 64 61 57 53 48 42 38 36 34 31 29 28 29 29
50 52 54 56 58 60 61 62 62 62 61 60 60 60 60 60 59 57 55 54 53 54 56 58 59 61 62 62 59 54 50 45 41 37 32 29 27 26 25 24 24 24 24
52 53 55 56 57 58 59 60 59 59 59 59 58 58 57 55 53 52 52 52 53 54 55 57 58 58 56 52 47 44 40 35 31 27 23 21 19 19 19 19 18 18 19
52 52 53 53 53 54 56 56 57 56 56 55 54 54 51 50 49 50 51 52 53 54 54 54 52 49 45 40 37 33 30 26 22 18 15 14 14 14 14 14 15 15 15
50 49 49 50 50 51 52 52 52 52 52 51 50 49 48 48 48 49 50 51 51 51 49 46 42 38 35 30 26 23 20 17 14 11 10 10 11 11 12 12 12 12 12
46 45 45 46 46 47 48 49 49 50 49 47 47 46 47 47 47 47 47 47 46 44 40 37 33 30 26 21 17 14 12 11 9 9 9 9 10 10 11 12 12 12 12
41 41 41 42 44 45 46 46 45 45 44 44 45 45 45 45 44 42 41 40 38 35 32 30 27 23 18 14 11 10 9 8 8 8 9 9 11 12 13 14 14 14 14
37 38 39 40 42 42 42 43 43 43 43 43 43 42 41 39 37 36 34 32 29 27 25 23 20 15 11 9 8 8 8 8 9 9 10 12 14 14 15 15 15 14 12
37 38 39 39 39 39 39 39 40 41 41 40 38 36 34 32 30 29 28 26 23 21 18 15 11 8 7 6 7 7 8 9 10 11 13 14 15 15 15 15 13 12 10
35 36 36 36 37 37 38 38 38 37 36 34 31 29 27 26 25 24 24 22 18 14 10 7 6 6 6 7 7 8 8 10 11 12 14 15 15 15 15 14 12 11 11
32 33 34 35 36 36 36 35 34 32 30 28 26 24 23 23 22 22 21 17 12 7 5 5 6 7 7 7 7 8 9 10 12 13 15 16 16 15 15 14 13 13 13
31 32 33 34 34 33 31 30 28 27 25 24 23 22 21 21 20 18 16 12 7 5 6 7 7 8 8 8 9 9 10 11 12 14 15 16 16 16 16 15 15 14 14
31 31 31 30 29 27 26 25 25 23 22 22 21 20 18 17 15 13 9 4 3 7 8 8 8 9 10 10 10 10 11 12 13 14 15 16 17 17 17 16 16 16 15
29 28 27 25 24 23 23 22 21 20 19 18 17 16 14 12 10 6 2 4 8 10 9 9 10 10 10 10 11 11 12 13 14 15 16 17 18 18 18 17 16 16 15
25 24 23 22 21 20 20 19 18 17 16 14 13 11 10 7 4 1 5 9 11 10 10 10 11 11 11 11 11 12 12 13 14 15 16 17 18 19 19 19 18 17 16
21 20 19 19 18 18 17 16 15 14 12 10 8 6 5 3 4 7 11 12 12 10 10 10 10 10 11 11 11 12 13 14 14 15 15 16 18 20 21 21 20 19 18
19 18 17 17 16 15 14 13 12 10 8 6 6 5 5 7 9 12 14 13 12 11 10 10 10 10 11 11 12 13 14 14 15 15 15 16 18 20 21 22 22 22 22
17 16 16 15 15 14 13 12 10 9 8 7 8 9 10 12 13 15 14 13 11 10 10 10 10 10 11 11 12 13 14 15 15 16 16 16 17 19 20 21 22 23 24
17 16 16 15 14 14 13 11 10 10 10 11 11 12 14 15 15 14 13 11 10 9 9 10 10 10 11 12 12 13 14 15 16 16 16 17 17 18 19 19 20 21 23
19 18 16 16 15 14 14 13 13 13 13 13 14 15 15 15 14 13 11 10 9 8 9 10 10 10 11 12 12 13 15 16 17 17 17 17 17 18 19 19 19 20 21
22 20 19 17 16 16 15 15 15 15 14 15 15 15 15 14 13 11 10 9 9 9 9 10 10 10 11 12 13 14 15 15 16 17 17 17 18 18 19 20 20 21 22
25 23 21 20 18 17 16 16 15 15 15 15 15 14 14 13 12 11 10 9 9 9 9 10 11 11 12 12 14 15 15 16 16 16 17 17 18 19 19 20 21 21 21
28 27 26 24 22 20 18 17 15 15 14 14 13 13 13 12 11 10 10 10 10 10 10 11 11 12 13 13 14 15 16 15 15 15 15 16 17 17 18 18 18 19 19
Wind_Direction
286 286 286 286 286 285 286 287 288 289 291 293 295 297 298 298 298 296 295 297 297 296 295 295 295 294 293 292 292 293 293 293 293 292 291 290 289 288 286 284 281 278 275
285 284 284 284 284 285 286 287 288 290 293 295 296 297 297 296 297 297 297 299 299 298 297 296 295 294 294 295 295 295 295 295 295 295 294 293 291 289 287 286 283 278 275
283 282 282 283 283 284 286 287 289 290 292 294 296 296 296 296 298 300 301 301 300 299 298 296 296 297 297 297 297 296 296 297 297 298 296 293 290 288 286 285 283 279 276
283 282 282 282 283 284 285 287 289 291 293 295 296 298 298 299 300 302 302 301 300 298 298 298 299 299 298 298 298 298 299 299 299 299 297 294 290 287 286 285 284 281 279
286 284 284 283 284 285 287 289 291 293 294 296 297 298 300 302 302 301 300 299 299 300 300 300 300 299 299 299 301 301 301 301 301 300 298 295 291 289 289 289 286 283 282
287 286 286 286 287 288 289 290 292 294 296 297 298 300 301 301 300 299 300 300 301 301 301 300 300 300 301 303 304 304 304 305 305 303 301 298 296 296 296 295 292 288 285
288 288 288 288 288 288 289 291 293 296 297 299 300 301 301 300 301 301 302 303 302 302 301 300 301 303 305 307 307 308 309 311 312 312 309 306 307 308 307 305 303 301 295
289 289 288 288 288 289 291 293 295 297 298 299 300 300 301 302 303 303 303 302 302 301 302 303 305 308 310 312 314 316 318 321 325 328 327 325 325 324 321 319 317 313 308
289 289 289 289 291 292 293 295 296 297 299 300 301 302 303 303 304 303 303 302 303 304 306 308 311 314 316 319 323 328 334 339 345 350 349 346 344 339 334 329 324 319 312
291 291 291 292 293 293 295 297 299 300 302 303 303 304 304 304 304 304 304 304 306 308 310 313 316 320 323 329 336 347 356 5 10 10 6 0 352 344 337 333 329 322 314
294 294 294 295 296 297 298 300 302 303 303 304 304 304 304 304 304 304 306 308 309 310 312 314 317 323 332 343 357 10 18 23 22 18 10 360 352 347 343 340 338 335 332
295 296 297 298 299 301 302 303 304 304 305 305 305 305 306 306 307 309 311 313 314 313 312 315 323 337 354 8 22 29 31 31 25 15 5 358 355 354 353 353 354 358 3
297 298 300 302 304 305 305 305 306 306 306 306 306 307 309 311 312 313 315 317 318 318 320 330 354 21 34 38 40 38 34 27 18 10 5 4 4 4 6 11 16 25 32
300 303 304 306 306 306 306 306 306 306 306 307 307 308 309 311 312 313 317 322 328 341 3 35 51 51 47 43 39 35 30 23 17 14 11 13 16 20 25 31 38 46 49
306 307 307 307 307 306 306 306 307 308 308 307 307 307 306 308 310 312 316 323 340 23 66 69 62 54 47 44 43 40 34 27 23 21 22 26 30 34 41 46 52 57 58
310 310 309 309 309 309 309 310 310 310 310 308 307 305 305 306 309 310 311 325 60 92 87 74 61 52 50 50 49 45 38 34 33 33 36 39 42 45 49 54 57 60 63
314 314 313 313 314 314 314 314 314 314 313 312 309 307 307 309 309 307 314 112 112 104 88 71 61 55 53 53 54 49 44 42 42 44 49 51 52 53 54 56 60 63 65
319 319 319 319 319 320 319 319 319 319 318 317 316 313 314 315 318 90 121 121 115 103 85 70 61 56 55 56 58 56 52 51 52 55 59 60 61 62 63 64 64 67 67
326 326 325 324 325 325 325 325 325 326 327 328 331 333 342 13 88 112 120 120 112 98 81 67 59 54 54 59 64 61 58 59 61 65 67 68 68 67 68 68 69 70 71
337 337 336 335 335 336 337 340 343 348 357 9 21 38 62 87 104 114 119 115 104 91 76 63 54 52 56 63 68 66 64 65 68 71 72 73 72 71 71 71 71 72 73
350 350 349 349 351 353 356 1 10 22 34 46 58 72 83 95 106 114 114 109 97 84 69 59 53 55 60 68 74 73 71 73 74 73 73 73 74 74 74 73 72 72 74
6 4 4 7 10 14 20 29 39 48 57 68 77 83 91 100 107 111 110 103 92 78 63 56 54 58 66 73 79 79 79 80 80 78 76 74 73 73 73 73 72 72 74
20 21 22 26 30 34 40 47 54 62 70 77 83 89 96 102 106 107 103 95 84 70 60 57 59 66 74 81 84 85 85 85 84 82 79 76 74 74 75 75 75 75 74
32 33 34 36 39 42 48 54 61 68 76 82 87 93 97 101 104 101 95 86 76 68 65 63 66 74 82 88 90 92 92 88 86 83 81 79 77 77 79 79 77 76 76
39 40 41 43 46 50 54 59 65 71 78 85 89 92 95 98 98 94 87 79 73 70 70 71 75 82 88 93 96 98 96 93 90 86 83 81 79 78 79 79 78 76 75
46 47 48 50 53 55 58 61 66 73 79 83 88 91 92 92 89 85 80 75 72 73 76 79 82 87 92 98 102 102 100 98 95 90 86 83 80 79 78 77 76 74 73
Height
5774 5771 5768 5765 5762 5759 5755 5751 5746 5742 5737 5732 5727 5722 5716 5710 5704 5698 5692 5687 5681 5675 5668 5662 5655 5648 5641 5633 5625 5617 5608 5599 5594 5591 5579 5570 5562 5556 5551 5546 5543 5541 5540
5765 5762 5759 5755 5752 5748 5743 5739 5734 5729 5723 5718 5713 5708 5702 5695 5689 5683 5677 5672 5665 5659 5652 5645 5638 5631 5623 5615 5607 5598 5588 5578 5571 5566 5560 5551 5545 5539 5535 5532 5529 5528 5527
5755 5752 5748 5744 5740 5736 5731 5726 5721 5716 5711 5706 5700 5694 5687 5681 5675 5669 5662 5656 5650 5643 5636 5629 5622 5614 5607 5598 5589 5580 5570 5560 5552 5546 5543 5536 5531 5526 5523 5521 5519 5518 5517
5744 5740 5736 5732 5728 5723 5718 5713 5708 5702 5697 5691 5685 5679 5673 5666 5660 5654 5647 5641 5635 5628 5621 5614 5606 5598 5590 5582 5572 5563 5554 5546 5539 5533 5528 5523 5519 5515 5513 5512 5511 5509 5508
5731 5727 5723 5719 5714 5709 5704 5698 5693 5687 5682 5677 5671 5665 5659 5653 5646 5639 5633 5627 5621 5614 5606 5598 5591 5582 5574 5565 5557 5549 5541 5534 5528 5522 5518 5514 5511 5508 5506 5505 5504 5502 5500
5718 5714 5709 5705 5700 5695 5689 5684 5678 5673 5668 5663 5657 5651 5645 5639 5632 5626 5619 5613 5607 5600 5592 5584 5576 5568 5560 5552 5544 5537 5530 5524 5519 5515 5511 5508 5505 5503 5501 5499 5497 5496 5494
5705 5700 5696 5691 5686 5681 5676 5670 5665 5660 5654 5649 5644 5638 5632 5626 5619 5613 5606 5600 5592 5585 5578 5571 5563 5556 5549 5543 5536 5529 5523 5517 5513 5509 5507 5504 5502 5500 5498 5496 5493 5491 5489
5691 5687 5682 5677 5672 5668 5663 5658 5653 5647 5642 5637 5631 5626 5620 5613 5607 5600 5593 5586 5579 5572 5565 5559 5553 5547 5540 5535 5529 5523 5519 5514 5510 5507 5505 5503 5501 5498 5496 5493 5491 5488 5486
5678 5674 5669 5664 5660 5655 5650 5646 5641 5635 5630 5624 5619 5613 5607 5601 5595 5588 5581 5574 5567 5561 5555 5550 5545 5539 5534 5529 5525 5521 5517 5514 5510 5508 5505 5503 5500 5497 5495 5492 5489 5486 5484
5666 5662 5657 5653 5648 5644 5639 5634 5628 5623 5617 5612 5607 5601 5595 5589 5583 5577 5570 5564 5558 5552 5548 5543 5538 5534 5530 5526 5523 5520 5517 5514 5511 5509 5506 5503 5500 5497 5494 5491 5487 5484 5481
5655 5651 5646 5642 5637 5632 5627 5622 5616 5611 5606 5601 5595 5590 5584 5578 5572 5567 5562 5556 5552 5547 5543 5539 5535 5531 5528 5526 5523 5520 5518 5515 5513 5510 5507 5504 5501 5497 5493 5489 5485 5482 5478
5645 5641 5636 5631 5626 5621 5616 5611 5606 5601 5595 5590 5584 5579 5574 5569 5564 5559 5555 5550 5547 5543 5539 5536 5533 5530 5528 5526 5524 5521 5519 5517 5515 5512 5509 5505 5501 5497 5493 5489 5485 5481 5478
5635 5630 5625 5621 5616 5611 5606 5601 5596 5590 5585 5580 5575 5571 5566 5562 5558 5554 5550 5546 5543 5540 5537 5534 5532 5530 5529 5527 5525 5523 5521 5519 5517 5514 5510 5506 5502 5498 5493 5490 5486 5483 5480
5626 5621 5616 5611 5606 5601 5596 5591 5586 5581 5577 5572 5568 5564 5560 5557 5553 5549 5546 5543 5540 5538 5536 5534 5533 5532 5530 5529 5527 5525 5523 5521 5518 5515 5511 5507 5503 5499 5495 5492 5489 5486 5483
5618 5613 5608 5603 5597 5592 5587 5583 5578 5574 5570 5566 5562 5559 5555 5552 5549 5546 5543 5541 5539 5537 5537 5536 5535 5534 5532 5530 5529 5527 5525 5523 5520 5517 5514 5510 5506 5502 5499 5496 5493 5490 5487
5610 5605 5600 5594 5589 5584 5580 5575 5571 5567 5563 5560 5556 5553 5550 5548 5545 5543 5541 5540 5539 5539 5538 5538 5537 5535 5534 5532 5531 5530 5528 5525 5523 5520 5517 5513 5510 5506 5503 5500 5498 5495 5492
5602 5597 5592 5587 5582 5578 5574 5569 5565 5561 5558 5554 5551 5548 5546 5544 5543 5541 5540 5540 5540 5541 5540 5540 5538 5537 5536 5535 5533 5532 5530 5528 5526 5523 5520 5518 5515 5511 5508 5505 5503 5500 5498
5595 5590 5586 5581 5577 5573 5568 5564 5561 5557 5554 5550 5548 5545 5543 5542 5541 5540 5540 5541 5542 5543 5543 5542 5541 5540 5538 5537 5536 5535 5533 5531 5529 5526 5524 5522 5520 5517 5514 5511 5508 5506 5503
5591 5586 5581 5577 5573 5569 5565 5561 5557 5553 5550 5548 5545 5544 5542 5541 5541 5541 5542 5544 5545 5545 5545 5544 5543 5542 5541 5540 5539 5537 5536 5534 5532 5530 5529 5527 5525 5522 5520 5517 5515 5512 5509
5587 5582 5578 5574 5569 5565 5561 5558 5554 5551 5549 5547 5545 5543 5543 5542 5543 5544 5545 5547 5548 5548 5548 5547 5546 5545 5543 5542 5541 5540 5539 5537 5536 5535 5533 5532 5530 5528 5526 5524 5522 5519 5516
5584 5580 5575 5571 5567 5563 5559 5556 5553 5551 5549 5547 5546 5545 5544 5545 5546 5547 5549 5550 5551 5551 5551 5550 5548 5547 5546 5545 5544 5544 5542 5541 5540 5539 5539 5538 5536 5534 5532 5531 5529 5526 5524
5583 5579 5574 5570 5567 5563 5559 5557 5554 5552 5550 5549 5548 5548 5548 5549 5550 5552 5553 5554 5554 5554 5553 5552 5551 5550 5549 5548 5548 5547 5546 5546 5545 5544 5544 5543 5542 5540 5539 5537 5535 5534 5532
5584 5579 5575 5572 5568 5565 5562 5559 5557 5555 5554 5553 5553 5553 5553 5554 5555 5556 5557 5557 5557 5557 5556 5554 5553 5553 5552 5551 5551 5551 5550 5550 5550 5550 5549 5548 5548 5546 5545 5543 5542 5540 5539
5586 5582 5578 5574 5571 5568 5565 5563 5561 5560 5559 5558 5558 5558 5558 5559 5560 5560 5560 5560 5560 5559 5558 5557 5556 5556 5555 5555 5555 5555 5555 5555 5555 5555 5555 5554 5553 5552 5551 5550 5549 5548 5546
5591 5586 5582 5578 5575 5572 5570 5568 5566 5565 5564 5563 5563 5563 5563 5564 5564 5564 5564 5563 5563 5562 5561 5560 5559 5559 5558 5558 5558 5559 5559 5559 5560 5560 5560 5560 5559 5559 5558 5557 5556 5555 5554
5597 5592 5588 5584 5580 5577 5575 5573 5571 5570 5569 5569 5568 5568 5568 5568 5568 5568 5567 5567 5566 5565 5564 5563 5563 5562 5562 5562 5562 5563 5563 5564 5565 5565 5565 5565 5565 5564 5564 5563 5562 5561 5560